Regional Weather Roundup
Issued by NWS

Home | Current Version | Previous Version | Graphics & Text | Print | Product List | Glossary On
Versions: 1 2 3 4 5 6 7 8 9 10 11 12 13 14 15 16 17 18 19 20 21 22 23 24 25 26 27 28 29 30 31 32 33 34 35 36 37 38 39 40 41 42 43 44 45 46 47 48 49 50
000
ASUS44 KMEG 231810
RWRTN
TENNESSEE HOURLY STATE WEATHER ROUNDUP
NATIONAL WEATHER SERVICE MEMPHIS TN
100 PM CDT TUE SEP 23 2014

TNZ002-004-019-021-049-052-054-088>092-231900-
WEST TENNESSEE

CITY           SKY/WX    TMP DP  RH WIND       PRES   REMARKS
MEMPHIS INTL   MOSUNNY   77  47  34 NE10      30.23F
NWS MEMPHIS      N/A     74 N/A N/A MISG        N/A
JACKSON        SUNNY     76  47  35 E8        30.25F
DYERSBURG      SUNNY     73  45  35 NE8       30.27S
UNION CITY     SUNNY     72  46  40 VRB7      30.26S
PARIS          SUNNY     72  45  37 E7        30.27F
HUNTINGDON     SUNNY     73  41  31 NE12      30.26F
LEXINGTON      SUNNY     73  48  40 E10       30.24F
SAVANNAH       SUNNY     79  54  41 VRB3      30.22F
$$

TNZ008-025-027-028-033-062-065-066-231900-
NORTH MIDDLE TENNESSEE

CITY           SKY/WX    TMP DP  RH WIND       PRES   REMARKS
NASHVILLE      MOSUNNY   75  48  38 E6        30.27F
DICKSON        SUNNY     72  46  40 SE8       30.27S
PORTLAND       SUNNY     72  48  43 NE8       30.27F
CLARKSVILLE    SUNNY     74  47  38 E12       30.27F
LEBANON        SUNNY     72  46  39 NE8       30.26F
SMYRNA         SUNNY     76  47  35 E8        30.27F
MURFREESBORO   SUNNY     72  47  40 NE6       30.25F
COOKEVILLE     SUNNY     73  54  49 NE5       30.26F
LIVINGSTON     SUNNY     67  48  50 E7        30.29
GALLATIN       SUNNY     73  50  44 NE8       30.28F
CROSSVILLE     SUNNY     70  46  42 VRB5      30.29F
$$

TNZ061-075-076-078-094-096-097-231900-
SOUTH MIDDLE TENNESSEE

CITY           SKY/WX    TMP DP  RH WIND       PRES   REMARKS
LEWISBURG      SUNNY     75  52  44 E7        30.24F
FAYETTEVILLE   PTSUNNY   73  54  49 VRB3      30.23F
TULLAHOMA      MOSUNNY   73  54  49 CALM      30.26S
WINCHESTER     MOSUNNY   73  55  53 NE6       30.24F
MCMINNVILLE    SUNNY     73  55  53 SE3       30.26F
COLUMBIA       SUNNY     75  52  43 VRB5      30.23F
SHELBYVILLE    SUNNY     77  54  44 NW6       30.25F
$$

TNZ017-018-042-046-047-231900-
NORTHEAST TENNESSEE

CITY           SKY/WX    TMP DP  RH WIND       PRES   REMARKS
TRI CITIES     MOSUNNY   72  48  42 S8        30.28F
ELIZABETHTON   CLEAR     68  50  52 E7        30.28F
$$

TNZ012-013-036-069-073-074-231900-
CENTRAL EAST TENNESSEE

CITY           SKY/WX    TMP DP  RH WIND       PRES   REMARKS
KNOXVILLE      MOSUNNY   72  51  47 E5        30.25F
OAK RIDGE      SUNNY     73  48  41 E5        30.27F
GATLINBURG     CLEAR     70  50  49 VRB3      30.26S
MORRISTOWN     CLEAR     72  52  49 SE5       30.28S
$$

TNZ083-085-099-231900-
SOUTHEAST TENNESSEE

CITY           SKY/WX    TMP DP  RH WIND       PRES   REMARKS
CHATTANOOGA    MOSUNNY   76  55  48 N9        30.24F
$$

SKY/WX REPORTED AS FAIR MEANS FEW OR NO CLOUDS BELOW
12 THOUSAND FEET.



USA.gov is the U.S. government's official web portal to all federal, state and local government web resources and services.